When you browse on this site, cookies collect data to enhance your experience and personalize the content and advertising you see.
Visit our Privacy Policy to learn more. By continuing to use the site, you agree to this use of cookies and data.
  • Em Portugal
  • Lista de países
  • Para 7 dias
  • Temperatura da água
  • Mapa do tempo
  • Widgets de tempo
  • user-avatar
    Iniciar Sessão

    Previsão horária em Kirovckoe

    Hoje, 26 Agosto, Segunda-feira

    Tempo Temperatura Precipitação Vento Pressão Humidade
    00:00 +22°C° 0 mm 5 m/s 745 mmHg 45%
    01:00 +21°C° 0 mm 4 m/s 745 mmHg 49%
    02:00 +20°C° 0 mm 4 m/s 745 mmHg 54%
    03:00 +19°C° 0 mm 4 m/s 745 mmHg 58%
    04:00 +19°C° 0 mm 4 m/s 745 mmHg 62%
    05:00 +18°C° 0 mm 4 m/s 745 mmHg 67%
    06:00 +18°C° 0 mm 4 m/s 746 mmHg 71%
    07:00 +19°C° 0 mm 5 m/s 746 mmHg 66%
    08:00 +21°C° 0 mm 5 m/s 746 mmHg 61%
    09:00 +22°C° 0 mm 5 m/s 747 mmHg 55%
    10:00 +23°C° 0 mm 5 m/s 747 mmHg 51%
    11:00 +26°C° 0 mm 5 m/s 747 mmHg 47%
    12:00 +27°C° 0 mm 5 m/s 747 mmHg 43%
    13:00 +27°C° 0 mm 5 m/s 746 mmHg 40%
    14:00 +28°C° 0 mm 5 m/s 746 mmHg 38%
    15:00 +28°C° 0 mm 5 m/s 746 mmHg 35%
    16:00 +28°C° 0 mm 5 m/s 746 mmHg 36%
    17:00 +27°C° 0 mm 4 m/s 746 mmHg 37%
    18:00 +26°C° 0 mm 4 m/s 745 mmHg 37%
    19:00 +25°C° 0 mm 4 m/s 745 mmHg 40%
    20:00 +22°C° 0 mm 4 m/s 746 mmHg 42%
    21:00 +21°C° 0 mm 4 m/s 746 mmHg 45%
    22:00 +20°C° 0 mm 4 m/s 745 mmHg 46%
    23:00 +19°C° 0 mm 4 m/s 745 mmHg 47%

    Amanhã, 27 Agosto, Terça-feira

    Tempo Temperatura Precipitação Vento Pressão Humidade
    00:00 +19°C° 0 mm 4 m/s 745 mmHg 48%
    01:00 +18°C° 0 mm 4 m/s 745 mmHg 50%
    02:00 +18°C° 0 mm 4 m/s 745 mmHg 51%
    03:00 +17°C° 0 mm 3 m/s 745 mmHg 53%
    04:00 +17°C° 0 mm 3 m/s 745 mmHg 55%
    05:00 +16°C° 0 mm 3 m/s 744 mmHg 56%
    06:00 +16°C° 0 mm 3 m/s 744 mmHg 58%
    07:00 +18°C° 0 mm 3 m/s 744 mmHg 54%
    08:00 +20°C° 0 mm 4 m/s 744 mmHg 49%
    09:00 +22°C° 0 mm 4 m/s 744 mmHg 44%
    10:00 +23°C° 0 mm 4 m/s 744 mmHg 40%
    11:00 +26°C° 0 mm 4 m/s 744 mmHg 37%
    12:00 +27°C° 0 mm 4 m/s 744 mmHg 33%
    13:00 +27°C° 0 mm 4 m/s 744 mmHg 30%
    14:00 +28°C° 0 mm 4 m/s 744 mmHg 28%
    15:00 +28°C° 0 mm 4 m/s 743 mmHg 26%
    16:00 +27°C° 0 mm 4 m/s 743 mmHg 29%
    17:00 +26°C° 0 mm 4 m/s 743 mmHg 32%
    18:00 +26°C° 0 mm 4 m/s 743 mmHg 35%
    19:00 +24°C° 0 mm 3 m/s 743 mmHg 38%
    20:00 +21°C° 0 mm 3 m/s 743 mmHg 41%
    21:00 +20°C° 0 mm 2 m/s 743 mmHg 44%
    22:00 +19°C° 0 mm 2 m/s 743 mmHg 47%
    23:00 +19°C° 0 mm 2 m/s 743 mmHg 49%

    Depois de amanhã, 28 Agosto, Quarta-feira

    Tempo Temperatura Precipitação Vento Pressão Humidade
    00:00 +18°C° 0 mm 2 m/s 743 mmHg 52%
    01:00 +18°C° 0 mm 2 m/s 743 mmHg 57%
    02:00 +18°C° 0 mm 2 m/s 743 mmHg 62%
    03:00 +17°C° 0 mm 2 m/s 743 mmHg 67%
    04:00 +17°C° 0 mm 2 m/s 743 mmHg 72%
    05:00 +17°C° 0 mm 2 m/s 743 mmHg 76%
    06:00 +16°C° 0 mm 2 m/s 743 mmHg 81%
    07:00 +18°C° 0 mm 3 m/s 743 mmHg 74%
    08:00 +20°C° 0 mm 4 m/s 743 mmHg 68%
    09:00 +21°C° 0 mm 4 m/s 743 mmHg 61%
    10:00 +22°C° 0 mm 5 m/s 743 mmHg 55%
    11:00 +23°C° 0 mm 5 m/s 743 mmHg 49%
    12:00 +25°C° 0 mm 5 m/s 743 mmHg 43%
    13:00 +26°C° 0 mm 5 m/s 743 mmHg 41%
    14:00 +26°C° 0 mm 5 m/s 743 mmHg 40%
    15:00 +26°C° 0 mm 5 m/s 743 mmHg 38%
    16:00 +25°C° 0 mm 5 m/s 743 mmHg 40%
    17:00 +23°C° 0 mm 5 m/s 743 mmHg 41%
    18:00 +23°C° 0 mm 5 m/s 743 mmHg 43%
    19:00 +21°C° 0 mm 5 m/s 743 mmHg 46%
    20:00 +19°C° 0 mm 4 m/s 744 mmHg 50%
    21:00 +18°C° 0 mm 4 m/s 744 mmHg 53%
    22:00 +17°C° 0 mm 4 m/s 744 mmHg 53%
    23:00 +15°C° 0 mm 5 m/s 744 mmHg 52%

    29 Agosto, Quinta-feira

    Tempo Temperatura Precipitação Vento Pressão Humidade
    00:00 +14°C° 0 mm 5 m/s 745 mmHg 51%
    01:00 +13°C° 0 mm 5 m/s 745 mmHg 51%
    02:00 +12°C° 0 mm 4 m/s 745 mmHg 50%
    03:00 +11°C° 0 mm 4 m/s 745 mmHg 49%
    04:00 +11°C° 0 mm 4 m/s 745 mmHg 54%
    05:00 +10°C° 0 mm 4 m/s 745 mmHg 58%
    06:00 +9°C° 0 mm 3 m/s 745 mmHg 63%
    07:00 +10°C° 0 mm 4 m/s 746 mmHg 58%
    08:00 +12°C° 0 mm 5 m/s 746 mmHg 54%
    09:00 +13°C° 0 mm 5 m/s 746 mmHg 50%
    10:00 +15°C° 0 mm 5 m/s 746 mmHg 46%
    11:00 +16°C° 0 mm 5 m/s 746 mmHg 43%
    12:00 +19°C° 0 mm 5 m/s 746 mmHg 39%
    13:00 +19°C° 0 mm 5 m/s 746 mmHg 37%
    14:00 +20°C° 0 mm 5 m/s 745 mmHg 35%
    15:00 +21°C° 0 mm 5 m/s 745 mmHg 33%
    16:00 +20°C° 0 mm 5 m/s 745 mmHg 34%
    17:00 +20°C° 0 mm 5 m/s 745 mmHg 35%
    18:00 +19°C° 0 mm 5 m/s 745 mmHg 37%
    19:00 +18°C° 0 mm 4 m/s 745 mmHg 39%
    20:00 +17°C° 0 mm 4 m/s 745 mmHg 41%
    21:00 +14°C° 0 mm 4 m/s 745 mmHg 43%
    22:00 +14°C° 0 mm 4 m/s 745 mmHg 44%
    23:00 +13°C° 0 mm 4 m/s 745 mmHg 46%

    30 Agosto, Sexta-feira

    Tempo Temperatura Precipitação Vento Pressão Humidade
    00:00 +13°C° 0 mm 4 m/s 745 mmHg 47%
    01:00 +12°C° 0 mm 4 m/s 744 mmHg 49%
    02:00 +12°C° 0 mm 4 m/s 744 mmHg 51%
    03:00 +11°C° 0 mm 4 m/s 744 mmHg 53%
    04:00 +11°C° 0 mm 3 m/s 744 mmHg 55%
    05:00 +10°C° 0 mm 3 m/s 744 mmHg 57%
    06:00 +10°C° 0 mm 3 m/s 744 mmHg 59%
    07:00 +12°C° 0 mm 4 m/s 745 mmHg 54%
    08:00 +13°C° 0 mm 4 m/s 745 mmHg 50%
    09:00 +15°C° 0 mm 5 m/s 745 mmHg 46%
    10:00 +16°C° 0 mm 5 m/s 745 mmHg 44%
    11:00 +19°C° 0 mm 5 m/s 745 mmHg 41%
    12:00 +20°C° 0 mm 5 m/s 745 mmHg 39%
    13:00 +21°C° 0 mm 5 m/s 745 mmHg 37%
    14:00 +21°C° 0 mm 5 m/s 745 mmHg 36%
    15:00 +22°C° 0 mm 5 m/s 744 mmHg 34%
    16:00 +22°C° 0 mm 4 m/s 744 mmHg 34%
    17:00 +21°C° 0 mm 4 m/s 744 mmHg 34%
    18:00 +21°C° 0 mm 4 m/s 744 mmHg 35%
    19:00 +19°C° 0 mm 4 m/s 744 mmHg 37%
    20:00 +17°C° 0 mm 4 m/s 745 mmHg 40%
    21:00 +15°C° 0 mm 4 m/s 745 mmHg 43%
    22:00 +14°C° 0 mm 4 m/s 745 mmHg 42%
    23:00 +13°C° 0 mm 3 m/s 745 mmHg 42%

    31 Agosto, Sábado

    Tempo Temperatura Precipitação Vento Pressão Humidade
    00:00 +12°C° 0 mm 3 m/s 745 mmHg 42%
    01:00 +12°C° 0 mm 3 m/s 745 mmHg 42%
    02:00 +11°C° 0 mm 3 m/s 745 mmHg 42%
    03:00 +11°C° 0 mm 3 m/s 745 mmHg 42%
    04:00 +11°C° 0 mm 3 m/s 745 mmHg 43%
    05:00 +10°C° 0 mm 3 m/s 745 mmHg 45%
    06:00 +10°C° 0 mm 3 m/s 745 mmHg 46%
    07:00 +12°C° 0 mm 4 m/s 746 mmHg 43%
    08:00 +14°C° 0 mm 4 m/s 746 mmHg 40%
    09:00 +16°C° 0 mm 5 m/s 746 mmHg 37%
    10:00 +17°C° 0 mm 5 m/s 746 mmHg 34%
    11:00 +19°C° 0 mm 5 m/s 746 mmHg 31%
    12:00 +21°C° 0 mm 5 m/s 747 mmHg 28%
    13:00 +21°C° 0 mm 5 m/s 746 mmHg 26%
    14:00 +22°C° 0 mm 4 m/s 746 mmHg 25%
    15:00 +22°C° 0 mm 4 m/s 746 mmHg 23%
    16:00 +22°C° 0 mm 4 m/s 746 mmHg 25%
    17:00 +21°C° 0 mm 4 m/s 746 mmHg 27%
    18:00 +21°C° 0 mm 3 m/s 746 mmHg 29%
    19:00 +19°C° 0 mm 3 m/s 746 mmHg 31%
    20:00 +17°C° 0 mm 3 m/s 746 mmHg 34%
    21:00 +14°C° 0 mm 3 m/s 746 mmHg 36%
    22:00 +15°C° 0 mm 2 m/s 746 mmHg 37%
    23:00 +15°C° 0 mm 2 m/s 746 mmHg 38%
    Mostrar mais